Location: *
(51.5000°N, 0.1100°W)
Time: 17:51:47
(UTC+00:00)

Cosmos 676 Rocket - Pass Details

Date: 25 May 2024
Orbit: 752 x 782 km, 74.0° (Epoch: 16 June)

Event Time Altitude Azimuth Distance (km) Brightness Sun altitude
Exits shadow 01:09:21 25° 207° (SSW) 1,530 5.0 -15.8°
Maximum altitude 01:12:31 85° 294° (WNW) 792 4.0 -15.6°
Drops below altitude 10° 01:17:53 10° 24° (NNE) 2,349 7.9 -15.4°
Sets 01:20:17 0° 25° (NNE) 3,281 9.1 -15.2°
